Location: Hiram
(41.3130°N, 81.1440°W)
Time: 20:23:58
(UTC-05:00)

Amateur Radio Satellites - All Passes

Search period start: 11 February 2016 19:53
Search period end: 12 February 2016 19:53
Location: Hiram, 41.3130°N, 81.1440°W

Satellite Date Start Highest point End Downlink Frequencies (MHz)
Time Altitude Azimuth
PRISM 11 Feb 20:01:58 20:05:55 40° 99° (E) 20:09:49 437.425
CUTE 1.7 + AOD 2 11 Feb 20:04:26 20:08:38 74° 259° (W) 20:12:52 437.475
HO-68 11 Feb 20:04:46 20:11:56 74° 256° (WSW) 20:19:09 435.675
Oscar 11 11 Feb 20:05:09 20:08:26 22° 67° (ENE) 20:11:43 145.826/435.025
SEEDS 11 Feb 20:07:15 20:11:25 88° 85° (E) 20:15:39 437.485
GOMX 1 11 Feb 20:13:19 20:16:47 17° 269° (W) 20:20:11 467.674
UWE-3 11 Feb 20:13:32 20:17:09 28° 70° (ENE) 20:20:44 435.000/436.395/437.385
AAUSAT CUBESAT 2 11 Feb 20:16:16 20:20:21 67° 76° (ENE) 20:24:30 437.432
CUBEBUG 2 11 Feb 20:16:34 20:20:38 42° 72° (ENE) 20:24:37 437.445
CINEMA 3 11 Feb 20:22:51 20:27:22 56° 259° (W) 20:31:44 145.822/145.860
AIST 2 11 Feb 20:31:40 20:34:04 15° 319° (NW) 20:36:29 435.215
AIST 1 11 Feb 20:44:43 20:47:24 16° 70° (ENE) 20:50:04
STRAND 1 11 Feb 20:48:36 20:52:49 26° 295° (WNW) 20:57:02 437.568
CANX-2 11 Feb 20:51:14 20:54:21 20° 267° (W) 20:57:30 2200.000
PCSat 11 Feb 21:00:15 21:04:49 28° 251° (WSW) 21:09:23 145.827
ISS 11 Feb 21:01:25 21:04:28 36° 28° (NNE) 21:07:29 145.825
ZACube-1 11 Feb 21:02:19 21:06:30 70° 75° (ENE) 21:10:39 437.345
HUMSAT D 11 Feb 21:04:38 21:07:42 21° 67° (ENE) 21:10:47 437.325/437.525
Cosmos 2499 11 Feb 21:08:43 21:17:08 80° 81° (E) 21:24:51 435.465 / 435.565
FUNcube-1 11 Feb 21:10:18 21:14:29 82° 75° (ENE) 21:18:38 145.935
GONETS M04 11 Feb 21:13:23 21:21:41 49° 271° (W) 21:30:01
DELFI C3 11 Feb 21:14:14 21:18:10 66° 75° (ENE) 21:22:08 145.870
COMPASS 1 11 Feb 21:26:48 21:29:25 16° 268° (W) 21:32:05 437.405
PRISM 11 Feb 21:38:09 21:40:57 18° 295° (WNW) 21:43:44 437.425
Oscar 11 11 Feb 21:40:29 21:44:22 33° 263° (W) 21:48:17 145.826/435.025
AISAT 11 Feb 21:40:29 21:42:22 13° 62° (ENE) 21:44:16 437.250
UKube-1 11 Feb 21:42:31 21:43:44 11° 61° (ENE) 21:44:57 .
UWE-3 11 Feb 21:50:12 21:53:37 23° 265° (W) 21:57:00 435.000/436.395/437.385
RS-15 11 Feb 21:53:03 22:04:29 49° 250° (WSW) 22:16:00 29.354- 29.394
CUBEBUG 1 11 Feb 21:53:45 21:55:56 14° 63° (ENE) 21:58:07 437.445
CUBEBUG 2 11 Feb 21:54:49 21:57:27 16° 267° (W) 22:00:05 437.445
DX 1 11 Feb 21:56:14 21:59:16 19° 65° (ENE) 22:02:18 434.975-435.025
HO-68 11 Feb 21:58:28 22:00:46 12° 273° (W) 22:03:05 435.675
ESTCUBE 1 11 Feb 22:08:33 22:12:17 26° 68° (ENE) 22:16:03 437.505/2401.250
ANTELSAT 11 Feb 22:14:59 22:18:47 28° 96° (E) 22:22:38 437.575/2403.000
TIGRISAT 11 Feb 22:21:03 22:24:57 31° 97° (E) 22:28:53 435.000
AIST 1 11 Feb 22:21:07 22:25:15 43° 268° (W) 22:29:18
50 SAT 11 Feb 22:36:35 22:40:10 50° 74° (ENE) 22:43:47 437.505
ISS 11 Feb 22:38:01 22:40:49 27° 225° (SW) 22:43:36 145.825
HUMSAT D 11 Feb 22:39:34 22:43:10 30° 263° (W) 22:46:48 437.325/437.525
POLYITAN 1 11 Feb 22:54:44 22:57:39 18° 93° (E) 23:00:33 437.675
QB50P2 11 Feb 22:55:11 22:58:13 19° 94° (E) 23:01:13 145.880/145.840
VELOX 1 11 Feb 22:56:44 23:01:11 74° 75° (ENE) 23:05:39 145.980
Cosmos 2499 11 Feb 23:03:39 23:09:06 20° 282° (WNW) 23:14:18 435.465 / 435.565
UNISAT 6 11 Feb 23:06:11 23:10:33 77° 285° (WNW) 23:14:59 437.425
AISAT 11 Feb 23:13:50 23:18:18 69° 258° (WSW) 23:22:46 437.250
UKube-1 11 Feb 23:14:50 23:19:10 75° 257° (WSW) 23:23:31 .
SPROUT 11 Feb 23:20:47 23:24:45 38° 71° (ENE) 23:28:45 437.525
TISAT 1 11 Feb 23:23:09 23:25:43 16° 65° (ENE) 23:28:16 437.305
POPSAT HIP 1 11 Feb 23:23:41 23:27:36 37° 98° (E) 23:31:29 437.405
NANOSAT C BR1 11 Feb 23:26:59 23:30:56 39° 98° (E) 23:34:52 145.865
PHONESAT 2.4 11 Feb 23:27:03 23:28:48 14° 149° (SSE) 23:30:35 2401.200-2431.200
CUBEBUG 1 11 Feb 23:27:19 23:31:42 62° 259° (W) 23:36:07 437.445
DUCHIFAT 1 11 Feb 23:27:27 23:31:22 37° 98° (E) 23:35:15 145.980
DX 1 11 Feb 23:30:59 23:35:09 42° 261° (W) 23:39:20 434.975-435.025
QB50P1 11 Feb 23:35:59 23:40:06 52° 100° (E) 23:44:11 145.935-145.965
ESTCUBE 1 11 Feb 23:44:59 23:48:59 31° 264° (W) 23:53:01 437.505/2401.250
ANTELSAT 11 Feb 23:51:48 23:55:25 26° 292° (WNW) 23:59:04 437.575/2403.000
TIGRISAT 11 Feb 23:58:02 00:01:30 23° 292° (WNW) 00:04:59 435.000
Cosmos 2491 12 Feb 00:10:15 00:12:56 11° 55° (NE) 00:15:36 435.465 / 435.565
50 SAT 12 Feb 00:13:58 00:14:29 10° 270° (W) 00:15:02 437.505
DANDE 12 Feb 00:18:41 00:20:50 11° 74° (ENE) 00:23:01 436.750
BUGSAT 1 12 Feb 00:19:40 00:23:43 80° 103° (ESE) 00:27:43 437.445
SWISSCUBE 12 Feb 00:25:01 00:28:05 17° 63° (ENE) 00:31:09 437.505
POLYITAN 1 12 Feb 00:29:43 00:33:35 37° 289° (WNW) 00:37:28 437.675
QB50P2 12 Feb 00:30:17 00:34:08 35° 289° (WNW) 00:37:58 145.880/145.840
BEESAT 3 12 Feb 00:31:49 00:34:27 17° 43° (NE) 00:37:05 437.485
VELOX 1 12 Feb 00:37:47 00:38:09 10° 271° (W) 00:38:32 145.980
TISAT 1 12 Feb 00:56:57 01:01:01 46° 261° (W) 01:05:06 437.305
SPROUT 12 Feb 00:57:53 01:00:52 18° 267° (W) 01:03:52 437.525
BEESAT 2 12 Feb 00:59:48 01:02:51 20° 46° (NE) 01:05:52 435.950
POPSAT HIP 1 12 Feb 01:00:10 01:03:08 19° 294° (WNW) 01:06:06 437.405
Oscar 19 12 Feb 01:01:11 01:05:17 24° 94° (E) 01:09:20 437.125/150
ITUPSAT 1 12 Feb 01:01:35 01:05:51 34° 69° (ENE) 01:10:09 437.325
PHONESAT 2.4 12 Feb 01:02:25 01:05:36 47° 164° (SSE) 01:08:46 2401.200-2431.200
CUSAT 1 12 Feb 01:02:49 01:10:14 43° 90° (E) 01:17:36 437.405
NANOSAT C BR1 12 Feb 01:03:33 01:06:23 18° 294° (WNW) 01:09:13 145.865
DUCHIFAT 1 12 Feb 01:03:55 01:06:48 18° 294° (WNW) 01:09:41 145.980
BEESAT 12 Feb 01:08:21 01:12:47 40° 70° (ENE) 01:17:15 436.000
QB50P1 12 Feb 01:13:14 01:15:27 14° 296° (WNW) 01:17:40 145.935-145.965
JAS-2 12 Feb 01:25:01 01:29:42 27° 94° (E) 01:34:07 435.910
Gurwin Techsat 1B 12 Feb 01:50:03 01:54:28 26° 95° (E) 01:58:53 435.225
DANDE 12 Feb 01:54:20 02:02:02 59° 93° (E) 02:10:20 436.750
SWISSCUBE 12 Feb 02:00:47 02:05:26 54° 259° (W) 02:10:08 437.505
Cosmos 2491 12 Feb 02:03:14 02:11:54 61° 78° (ENE) 02:20:32 435.465 / 435.565
BEESAT 3 12 Feb 02:08:39 02:12:31 52° 242° (WSW) 02:16:20 437.485
KKS-1 12 Feb 02:12:05 02:15:43 25° 67° (ENE) 02:19:21 437.445
ITAMSAT 1 12 Feb 02:15:00 02:19:06 23° 94° (E) 02:23:11 435.822/435.867
MOZHAYETS 4 12 Feb 02:23:51 02:26:04 13° 62° (ENE) 02:28:16
BEESAT 2 12 Feb 02:37:09 02:40:54 40° 244° (WSW) 02:44:37 435.950
PHONESAT 2.4 12 Feb 02:39:28 02:42:46 79° 180° (S) 02:46:02 2401.200-2431.200
ITUPSAT 1 12 Feb 02:39:47 02:43:43 25° 265° (W) 02:47:41 437.325
Oscar 19 12 Feb 02:39:57 02:44:44 41° 291° (WNW) 02:49:30 437.125/150
CUSAT 1 12 Feb 02:44:51 02:52:28 45° 287° (WNW) 02:59:59 437.405
BEESAT 12 Feb 02:47:07 02:50:43 21° 266° (W) 02:54:21 436.000
YUBILEINY 12 Feb 02:51:48 03:00:11 52° 89° (E) 03:08:37 435.215
Cosmos 2504 12 Feb 03:04:30 03:06:56 11° 72° (ENE) 03:09:23 435.465 / 435.565
JAS-2 12 Feb 03:09:51 03:14:54 35° 293° (WNW) 03:19:38 435.910
AIST 2 12 Feb 03:12:26 03:16:27 46° 53° (NE) 03:20:25 435.215
SO-50 12 Feb 03:16:21 03:17:54 11° 106° (ESE) 03:19:28 436.795
STARS 12 Feb 03:24:14 03:28:38 80° 74° (ENE) 03:33:03 437.465
Gurwin Techsat 1B 12 Feb 03:29:35 03:34:31 40° 291° (WNW) 03:39:26 435.225
DANDE 12 Feb 03:38:17 03:45:25 34° 292° (WNW) 03:52:57 436.750
KKS-1 12 Feb 03:48:13 03:52:10 31° 263° (W) 03:56:07 437.445
ITAMSAT 1 12 Feb 03:53:47 03:58:45 44° 290° (WNW) 04:03:41 435.822/435.867
MOZHAYETS 4 12 Feb 03:58:09 04:02:40 66° 259° (WSW) 04:07:15
Cosmos 2491 12 Feb 04:00:59 04:08:06 29° 277° (W) 04:15:16 435.465 / 435.565
AO-7 12 Feb 04:06:56 04:15:10 60° 103° (ESE) 04:23:19 29.400- 29.500
PHONESAT 2.4 12 Feb 04:16:46 04:19:54 44° 197° (SSW) 04:23:02 2401.200-2431.200
M-CUBED/EXP-1 PRIME 12 Feb 04:31:36 04:34:51 38° 105° (ESE) 04:38:17 437.505
AUBIESAT-1 12 Feb 04:39:12 04:42:30 39° 105° (ESE) 04:45:59 437.475
CUBESAT XI-V 12 Feb 04:45:32 04:49:55 40° 71° (ENE) 04:54:20 437.345
YUBILEINY 12 Feb 04:49:25 04:57:14 35° 289° (WNW) 05:05:11 435.215
Cosmos 2504 12 Feb 04:49:57 04:58:25 64° 92° (E) 05:07:11 435.465 / 435.565
AIST 2 12 Feb 04:51:58 04:54:34 16° 250° (WSW) 04:57:10 435.215
SO-50 12 Feb 04:52:45 04:57:39 87° 302° (WNW) 05:02:38 436.795
HORYU 2 12 Feb 05:05:47 05:10:14 83° 284° (WNW) 05:14:42 437.375
CUTE-I 12 Feb 05:49:39 05:53:50 22° 94° (E) 05:57:58 437.470
PHONESAT 2.4 12 Feb 05:55:11 05:56:40 12° 212° (SSW) 05:58:07 2401.200-2431.200
AO-7 12 Feb 06:00:22 06:07:29 33° 303° (WNW) 06:14:34 29.400- 29.500
Cubesat XI-IV 12 Feb 06:03:47 06:08:30 30° 96° (E) 06:13:11 437.490
M-CUBED/EXP-1 PRIME 12 Feb 06:07:30 06:09:16 13° 298° (WNW) 06:11:03 437.505
AUBIESAT-1 12 Feb 06:15:02 06:16:51 14° 298° (WNW) 06:18:42 437.475
CUBESAT XI-V 12 Feb 06:23:56 06:27:26 21° 267° (W) 06:30:59 437.345
STRAND 1 12 Feb 06:24:48 06:29:47 56° 72° (ENE) 06:34:49 437.568
SO-50 12 Feb 06:35:50 06:38:54 16° 322° (NW) 06:41:57 436.795
GOMX 1 12 Feb 06:37:02 06:39:24 14° 90° (E) 06:41:41 467.674
Cosmos 2504 12 Feb 06:45:05 06:52:24 30° 292° (WNW) 06:59:58 435.465 / 435.565
PRISM 12 Feb 06:51:38 06:55:16 30° 69° (ENE) 06:58:54 437.425
LilacSat-2 12 Feb 06:55:45 06:59:32 82° 284° (WNW) 07:03:19 437.200
BRITE-PL 12 Feb 07:20:39 07:25:22 87° 285° (WNW) 07:29:43 437.365/2234.400
CUTE-I 12 Feb 07:28:56 07:34:05 47° 290° (WNW) 07:39:12 437.470
O/OREOS (USA 219) 12 Feb 07:29:01 07:33:18 48° 107° (ESE) 07:37:40 437.305
HO-68 12 Feb 07:33:36 07:38:53 21° 92° (E) 07:44:07 435.675
DOVE 4 12 Feb 07:42:02 07:45:56 36° 97° (E) 07:49:45 437.250
Cubesat XI-IV 12 Feb 07:43:43 07:48:34 35° 292° (WNW) 07:53:25 437.490
CUTE 1.7 + AOD 2 12 Feb 07:50:12 07:53:16 19° 93° (E) 07:56:19 437.475
SEEDS 12 Feb 07:52:33 07:55:00 15° 91° (E) 07:57:27 437.485
Cosmos 2499 12 Feb 07:57:28 08:00:27 12° 73° (ENE) 08:03:26 435.465 / 435.565
AAUSAT CUBESAT 2 12 Feb 08:01:24 08:02:15 10° 89° (E) 08:03:05 437.432
STRAND 1 12 Feb 08:06:00 08:09:19 17° 268° (W) 08:12:38 437.568
GOMX 1 12 Feb 08:13:39 08:17:51 46° 288° (WNW) 08:21:52 467.674
CINEMA 3 12 Feb 08:17:39 08:21:20 30° 96° (E) 08:25:03 145.822/145.860
GONETS M04 12 Feb 08:17:54 08:25:51 43° 87° (E) 08:33:52
PRISM 12 Feb 08:27:17 08:30:35 23° 265° (W) 08:33:55 437.425
CANX-2 12 Feb 08:34:49 08:39:07 68° 101° (E) 08:43:23 2200.000
ZACube-1 12 Feb 08:52:07 08:54:08 13° 91° (E) 08:56:10 437.345
FUNcube-1 12 Feb 08:59:23 09:01:53 15° 92° (E) 09:04:24 145.935
COMPASS 1 12 Feb 09:07:48 09:12:02 78° 101° (E) 09:16:16 437.405
O/OREOS (USA 219) 12 Feb 09:09:54 09:12:59 18° 305° (NW) 09:16:07 437.305
ANTELSAT 12 Feb 09:14:17 09:17:48 25° 68° (ENE) 09:21:19 437.575/2403.000
HO-68 12 Feb 09:20:00 09:27:10 71° 290° (WNW) 09:34:18 435.675
TIGRISAT 12 Feb 09:20:06 09:23:45 28° 69° (ENE) 09:27:22 435.000
DOVE 4 12 Feb 09:20:31 09:23:24 18° 294° (WNW) 09:26:14 437.250
CUTE 1.7 + AOD 2 12 Feb 09:25:17 09:29:14 37° 289° (WNW) 09:33:11 437.475
SEEDS 12 Feb 09:26:52 09:30:57 46° 287° (WNW) 09:35:02 437.485
Oscar 11 12 Feb 09:27:11 09:31:19 41° 98° (E) 09:35:26 145.826/435.025
AAUSAT CUBESAT 2 12 Feb 09:33:59 09:38:10 64° 285° (WNW) 09:42:19 437.432
UWE-3 12 Feb 09:38:28 09:42:39 63° 101° (E) 09:46:56 435.000/436.395/437.385
Cosmos 2499 12 Feb 09:43:09 09:51:46 66° 92° (E) 10:00:33 435.465 / 435.565
CUBEBUG 2 12 Feb 09:43:20 09:47:32 81° 283° (WNW) 09:51:50 437.445
POLYITAN 1 12 Feb 09:48:17 09:50:40 15° 64° (ENE) 09:53:03 437.675
QB50P2 12 Feb 09:48:40 09:51:10 16° 64° (ENE) 09:53:40 145.880/145.840
AO-85 12 Feb 09:53:44 09:58:59 62° 118° (ESE) 10:04:27 145.980
CINEMA 3 12 Feb 09:55:09 09:58:21 22° 292° (WNW) 10:01:34 145.822/145.860
PCSat 12 Feb 09:58:17 10:03:12 37° 111° (ESE) 10:08:09 145.827
UNISAT 6 12 Feb 10:04:58 10:09:17 88° 259° (W) 10:13:35 437.425
RS-15 12 Feb 10:05:51 10:14:55 30° 103° (ESE) 10:24:17 29.354- 29.394
CANX-2 12 Feb 10:12:53 10:14:24 12° 297° (WNW) 10:15:55 2200.000
GONETS M04 12 Feb 10:14:32 10:22:38 42° 287° (WNW) 10:30:49
POPSAT HIP 1 12 Feb 10:16:24 10:20:02 28° 69° (ENE) 10:23:39 437.405
NANOSAT C BR1 12 Feb 10:19:20 10:23:00 30° 70° (ENE) 10:26:41 145.865
DUCHIFAT 1 12 Feb 10:19:36 10:23:13 29° 69° (ENE) 10:26:50 145.980
HUMSAT D 12 Feb 10:22:26 10:26:22 38° 98° (E) 10:30:19 437.325/437.525
ZACube-1 12 Feb 10:26:35 10:30:43 53° 286° (WNW) 10:34:55 437.345
DELFI C3 12 Feb 10:26:57 10:31:00 73° 284° (WNW) 10:35:02 145.870
QB50P1 12 Feb 10:28:25 10:32:21 39° 71° (ENE) 10:36:17 145.935-145.965
FUNcube-1 12 Feb 10:34:19 10:38:21 45° 287° (WNW) 10:42:27 145.935
VELOX 1 12 Feb 10:48:37 10:50:52 14° 91° (E) 10:53:06 145.980
AIST 1 12 Feb 10:49:46 10:54:09 75° 278° (W) 10:58:35
ANTELSAT 12 Feb 10:50:46 10:54:26 27° 264° (W) 10:58:07 437.575/2403.000
TIGRISAT 12 Feb 10:56:51 11:00:24 25° 265° (W) 11:03:56 435.000
UKube-1 12 Feb 11:03:02 11:05:58 18° 93° (E) 11:08:53 .
Oscar 11 12 Feb 11:04:10 11:07:08 18° 294° (WNW) 11:10:06 145.826/435.025
AISAT 12 Feb 11:04:50 11:08:15 22° 94° (E) 11:11:38 437.250
BUGSAT 1 12 Feb 11:09:06 11:13:11 54° 74° (ENE) 11:17:15 437.445
HO-68 12 Feb 11:10:04 11:13:38 15° 309° (NW) 11:17:12 435.675
CUBEBUG 1 12 Feb 11:16:32 11:20:03 23° 95° (E) 11:23:31 437.445
UWE-3 12 Feb 11:16:59 11:18:39 12° 297° (WNW) 11:20:18 435.000/436.395/437.385
DX 1 12 Feb 11:19:11 11:23:04 31° 97° (E) 11:26:55 434.975-435.025
POLYITAN 1 12 Feb 11:21:59 11:26:05 49° 260° (W) 11:30:12 437.675
QB50P2 12 Feb 11:22:30 11:26:36 47° 261° (W) 11:30:42 145.880/145.840
AO-85 12 Feb 11:35:32 11:39:58 25° 317° (NW) 11:44:28 145.980
ESTCUBE 1 12 Feb 11:36:49 11:41:17 54° 100° (E) 11:45:43 437.505/2401.250
JAS-2 12 Feb 11:37:32 11:42:13 19° 59° (ENE) 11:46:39 435.910
Cosmos 2499 12 Feb 11:38:11 11:45:32 29° 292° (WNW) 11:53:01 435.465 / 435.565
50 SAT 12 Feb 11:41:42 11:45:31 71° 102° (ESE) 11:49:19 437.505
PCSat 12 Feb 11:41:43 11:46:36 34° 309° (NW) 11:51:32 145.827
CUSAT 1 12 Feb 11:42:02 11:46:09 21° 62° (ENE) 11:49:33 437.405
SO-50 12 Feb 11:45:16 11:48:02 15° 37° (NE) 11:50:46 436.795
POPSAT HIP 1 12 Feb 11:52:22 11:55:48 24° 265° (W) 11:59:14 437.405
NANOSAT C BR1 12 Feb 11:55:24 11:58:45 23° 265° (W) 12:02:07 145.865
DUCHIFAT 1 12 Feb 11:55:31 11:58:54 23° 265° (W) 12:02:18 145.980
HUMSAT D 12 Feb 11:58:51 12:01:44 18° 294° (WNW) 12:04:38 437.325/437.525
QB50P1 12 Feb 12:05:26 12:08:17 17° 267° (W) 12:11:09 145.935-145.965
RS-15 12 Feb 12:14:59 12:26:08 75° 305° (NW) 12:37:58 29.354- 29.394
Oscar 19 12 Feb 12:17:50 12:22:30 35° 68° (ENE) 12:27:10 437.125/150
VELOX 1 12 Feb 12:23:22 12:27:41 54° 287° (WNW) 12:31:57 145.980
DANDE 12 Feb 12:37:22 12:43:46 41° 70° (ENE) 12:48:40 436.750
UKube-1 12 Feb 12:38:08 12:42:11 40° 289° (WNW) 12:46:13 .
AISAT 12 Feb 12:40:50 12:44:48 34° 291° (WNW) 12:48:45 437.250
TISAT 1 12 Feb 12:41:15 12:44:44 25° 96° (E) 12:48:12 437.305
SPROUT 12 Feb 12:42:22 12:46:39 76° 102° (ESE) 12:50:53 437.525
BUGSAT 1 12 Feb 12:47:06 12:48:52 12° 269° (W) 12:50:39 437.445
CUBEBUG 1 12 Feb 12:52:32 12:56:21 30° 291° (WNW) 13:00:09 437.445
DX 1 12 Feb 12:55:38 12:59:07 24° 293° (WNW) 13:02:33 434.975-435.025
YUBILEINY 12 Feb 13:02:20 13:09:25 26° 66° (ENE) 13:16:25 435.215
Gurwin Techsat 1B 12 Feb 13:10:59 13:15:56 42° 69° (ENE) 13:20:55 435.225
Cosmos 2491 12 Feb 13:14:44 13:17:32 12° 73° (ENE) 13:20:20 435.465 / 435.565
ESTCUBE 1 12 Feb 13:14:56 13:17:39 16° 297° (WNW) 13:20:21 437.505/2401.250
AO-7 12 Feb 13:16:59 13:22:23 19° 49° (NE) 13:27:46 29.400- 29.500
JAS-2 12 Feb 13:18:52 13:26:31 89° 66° (ENE) 13:33:26 435.910
CUSAT 1 12 Feb 13:23:45 13:28:51 39° 270° (W) 13:32:44 437.405
SO-50 12 Feb 13:24:29 13:29:20 84° 56° (NE) 13:33:59 436.795
ITAMSAT 1 12 Feb 13:32:49 13:37:29 35° 68° (ENE) 13:42:11 435.822/435.867
Oscar 19 12 Feb 13:57:25 14:01:50 28° 265° (W) 14:06:17 437.125/150
SWISSCUBE 12 Feb 14:00:58 14:05:26 37° 98° (E) 14:09:52 437.505
TISAT 1 12 Feb 14:16:51 14:20:21 26° 292° (WNW) 14:23:49 437.305
DANDE 12 Feb 14:20:55 14:26:18 27° 277° (W) 14:30:38 436.750
SPROUT 12 Feb 14:21:17 14:22:00 10° 299° (WNW) 14:22:42 437.525
RS-15 12 Feb 14:31:24 14:41:00 29° 334° (NNW) 14:51:02 29.354- 29.394
ITUPSAT 1 12 Feb 14:39:06 14:43:57 82° 102° (ESE) 14:48:46 437.325
Cosmos 2504 12 Feb 14:44:02 14:50:38 24° 64° (ENE) 14:56:52 435.465 / 435.565
BEESAT 12 Feb 14:45:40 14:50:29 84° 284° (WNW) 14:55:17 436.000
Gurwin Techsat 1B 12 Feb 14:51:43 14:56:01 25° 266° (W) 15:00:20 435.225
YUBILEINY 12 Feb 14:58:14 15:07:01 71° 267° (W) 15:15:44 435.215
Cosmos 2491 12 Feb 15:04:01 15:12:37 70° 93° (E) 15:21:15 435.465 / 435.565
AO-7 12 Feb 15:05:31 15:13:53 79° 69° (ENE) 15:22:16 29.400- 29.500
JAS-2 12 Feb 15:07:35 15:12:06 17° 270° (W) 15:16:25 435.910
SO-50 12 Feb 15:07:47 15:09:03 11° 254° (WSW) 15:10:18 436.795
ITAMSAT 1 12 Feb 15:12:32 15:16:58 28° 264° (W) 15:21:27 435.822/435.867
STARS 12 Feb 15:15:12 15:17:34 14° 92° (E) 15:19:55 437.465
ISS 12 Feb 15:16:52 15:20:06 85° 144° (SE) 15:23:21 145.825
M-CUBED/EXP-1 PRIME 12 Feb 15:19:03 15:22:32 52° 69° (ENE) 15:25:51 437.505
AUBIESAT-1 12 Feb 15:26:13 15:29:40 52° 70° (ENE) 15:32:59 437.475
KKS-1 12 Feb 15:38:31 15:42:50 48° 100° (E) 15:47:05 437.445
SWISSCUBE 12 Feb 15:39:11 15:43:01 24° 294° (WNW) 15:46:51 437.505
MOZHAYETS 4 12 Feb 15:53:23 15:57:26 29° 96° (E) 16:01:28
BEESAT 3 12 Feb 16:00:13 16:03:27 24° 113° (ESE) 16:06:42 437.485
O/OREOS (USA 219) 12 Feb 16:01:33 16:03:15 12° 50° (NE) 16:04:57 437.305
HORYU 2 12 Feb 16:03:36 16:08:02 89° 283° (WNW) 16:12:28 437.375
ITUPSAT 1 12 Feb 16:19:13 16:21:06 12° 300° (WNW) 16:22:58 437.325
BEESAT 12 Feb 16:27:02 16:27:29 10° 302° (WNW) 16:27:56 436.000
BEESAT 2 12 Feb 16:29:25 16:33:00 32° 115° (ESE) 16:36:36 435.950
Cosmos 2504 12 Feb 16:36:25 16:44:58 74° 266° (W) 16:52:52 435.465 / 435.565
AO-85 12 Feb 16:47:29 16:49:26 12° 31° (NNE) 16:51:21 145.980
STARS 12 Feb 16:50:00 16:54:14 51° 287° (WNW) 16:58:27 437.465
RS-15 12 Feb 16:50:01 16:58:56 23° 10° (N) 17:08:06 29.354- 29.394
ISS 12 Feb 16:54:24 16:56:53 20° 342° (NNW) 16:59:22 145.825
BRITE-PL 12 Feb 16:54:32 16:57:43 16° 62° (ENE) 17:00:52 437.365/2234.400
YUBILEINY 12 Feb 16:58:47 17:02:04 13° 287° (WNW) 17:05:21 435.215
AO-7 12 Feb 17:01:21 17:07:26 22° 268° (W) 17:13:34 29.400- 29.500
Cosmos 2491 12 Feb 17:03:16 17:10:12 26° 294° (WNW) 17:17:12 435.465 / 435.565
CUTE-I 12 Feb 17:11:19 17:16:09 37° 68° (ENE) 17:21:02 437.470
KKS-1 12 Feb 17:16:13 17:19:01 17° 296° (WNW) 17:21:48 437.445
Cubesat XI-IV 12 Feb 17:25:41 17:30:48 49° 70° (ENE) 17:35:57 437.490
MOZHAYETS 4 12 Feb 17:30:34 17:34:32 28° 292° (WNW) 17:38:29
BEESAT 3 12 Feb 17:37:32 17:41:05 30° 310° (NW) 17:44:39 437.485
LilacSat-2 12 Feb 17:37:41 17:41:20 46° 74° (ENE) 17:45:00 437.200
O/OREOS (USA 219) 12 Feb 17:38:42 17:43:19 86° 249° (WSW) 17:47:55 437.305
GOMX 1 12 Feb 17:44:02 17:48:00 22° 66° (ENE) 17:51:48 467.674
HO-68 12 Feb 18:03:49 18:08:18 18° 54° (NE) 18:12:48 435.675
BEESAT 2 12 Feb 18:07:35 18:10:55 25° 312° (NW) 18:14:17 435.950
CUBESAT XI-V 12 Feb 18:18:59 18:23:43 82° 284° (WNW) 18:28:22 437.345
AO-85 12 Feb 18:26:10 18:31:15 53° 52° (NE) 18:35:54 145.980
GONETS M04 12 Feb 18:28:19 18:34:39 21° 63° (ENE) 18:40:58
BRITE-PL 12 Feb 18:29:51 18:35:33 80° 257° (WSW) 18:41:04 437.365/2234.400
ISS 12 Feb 18:32:34 18:34:15 13° 2° (N) 18:35:57 145.825
Cosmos 2504 12 Feb 18:33:12 18:36:37 13° 287° (WNW) 18:39:57 435.465 / 435.565
STRAND 1 12 Feb 18:36:12 18:39:50 19° 92° (E) 18:43:27 437.568
CUTE 1.7 + AOD 2 12 Feb 18:43:58 18:46:13 14° 64° (ENE) 18:48:28 437.475
PCSat 12 Feb 18:45:51 18:50:42 32° 50° (NE) 18:55:31 145.827
SEEDS 12 Feb 18:46:02 18:47:13 11° 62° (ENE) 18:48:25 437.485
DOVE 4 12 Feb 18:46:46 18:51:30 42° 72° (ENE) 18:55:58 437.250
AIST 2 12 Feb 18:47:52 18:52:01 82° 301° (WNW) 18:56:13 435.215
CUTE-I 12 Feb 18:51:42 18:56:14 28° 265° (W) 19:00:49 437.470
RS-15 12 Feb 19:04:05 19:15:38 47° 42° (NE) 19:27:20 29.354- 29.394
Cubesat XI-IV 12 Feb 19:07:11 19:11:08 21° 267° (W) 19:15:07 437.490
LilacSat-2 12 Feb 19:14:30 19:15:55 12° 269° (W) 19:17:20 437.200
CINEMA 3 12 Feb 19:19:17 19:23:14 30° 70° (ENE) 19:27:03 145.822/145.860
GOMX 1 12 Feb 19:20:32 19:25:45 50° 261° (W) 19:30:44 467.674
CANX-2 12 Feb 19:27:29 19:31:31 47° 73° (ENE) 19:35:36 2200.000
Cosmos 2499 12 Feb 19:36:10 19:42:31 23° 64° (ENE) 19:48:29 435.465 / 435.565
ZACube-1 12 Feb 19:49:37 19:50:39 11° 62° (ENE) 19:51:41 437.345
